CW1020 Weather Reports


Display with metric or nautical units.
time (UTC)temp
F
wind
direction
speed
MPH
gust
MPH
rain 1hr
in
rain 24hr
in
rain mn
in
humidity
%
barometer
mb
20210925220005 78 332 15.0 21.0 0.00 0.00 0.00 33 1018.4
20210925215515 79 344 15.0 22.0 0.00 0.00 0.00 32 1018.3
20210925215004 79 349 15.0 22.0 0.00 0.00 0.00 32 1018.3
20210925214519 79 333 14.0 21.0 0.00 0.00 0.00 32 1018.4
20210925214010 80 348 14.0 21.0 0.00 0.00 0.00 31 1018.3
20210925213507 81 337 14.0 21.0 0.00 0.00 0.00 30 1018.4
20210925213016 81 312 11.0 17.0 0.00 0.00 0.00 30 1018.4
20210925212510 81 325 7.0 17.0 0.00 0.00 0.00 28 1018.4
20210925212003 81 355 13.0 17.0 0.00 0.00 0.00 30 1018.5
20210925211517 81 355 9.0 18.0 0.00 0.00 0.00 30 1018.6
20210925211007 81 319 13.0 18.0 0.00 0.00 0.00 30 1018.6
20210925210521 81 331 11.0 17.0 0.00 0.00 0.00 30 1018.7
20210925210015 82 335 12.0 16.0 0.00 0.00 0.00 30 1018.7
20210925205507 82 342 10.0 16.0 0.00 0.00 0.00 29 1018.8
20210925205016 82 335 11.0 16.0 0.00 0.00 0.00 29 1018.9
20210925204508 82 340 7.0 14.0 0.00 0.00 0.00 30 1019.1
20210925204021 82 342 9.0 14.0 0.00 0.00 0.00 29 1019.1
20210925203512 81 313 10.0 15.0 0.00 0.00 0.00 29 1019.1
20210925203023 82 328 9.0 15.0 0.00 0.00 0.00 29 1019.2
20210925202515 82 12 6.0 14.0 0.00 0.00 0.00 28 1019.3
20210925202007 82 355 8.0 14.0 0.00 0.00 0.00 28 1019.4
20210925201517 83 331 5.0 10.0 0.00 0.00 0.00 27 1019.6
20210925201006 82 318 6.0 13.0 0.00 0.00 0.00 28 1019.7
20210925200519 82 331 7.0 13.0 0.00 0.00 0.00 27 1019.8
20210925200011 82 336 7.0 13.0 0.00 0.00 0.00 28 1019.7
20210925195521 82 323 6.0 11.0 0.00 0.00 0.00 27 1019.8
20210925195014 81 287 6.0 12.0 0.00 0.00 0.00 28 1019.8
20210925194508 81 345 9.0 12.0 0.00 0.00 0.00 28 1019.7
20210925194021 81 319 7.0 11.0 0.00 0.00 0.00 27 1019.8
20210925193509 81 331 5.0 12.0 0.00 0.00 0.00 27 1019.9
20210925193024 82 360 7.0 12.0 0.00 0.00 0.00 26 1019.9
20210925192516 82 315 6.0 11.0 0.00 0.00 0.00 27 1020.0
20210925192010 82 315 7.0 12.0 0.00 0.00 0.00 26 1020.0
20210925191519 82 338 6.0 11.0 0.00 0.00 0.00 26 1020.1
20210925191011 81 329 4.0 10.0 0.00 0.00 0.00 26 1020.1
20210925190503 81 315 5.0 12.0 0.00 0.00 0.00 26 1020.2
20210925190011 81 338 7.0 12.0 0.00 0.00 0.00 27 1020.2
20210925185504 80 338 8.0 12.0 0.00 0.00 0.00 26 1020.2
20210925185018 80 336 4.0 12.0 0.00 0.00 0.00 26 1020.4
20210925184512 80 336 8.0 12.0 0.00 0.00 0.00 26 1020.4
20210925184019 80 341 7.0 10.0 0.00 0.00 0.00 27 1020.4
20210925183507 80 335 6.0 11.0 0.00 0.00 0.00 27 1020.5
20210925183023 79 339 4.0 11.0 0.00 0.00 0.00 28 1020.4
20210925182509 79 355 5.0 11.0 0.00 0.00 0.00 29 1020.5
20210925182017 79 355 4.0 9.0 0.00 0.00 0.00 28 1020.6
20210925181510 78 344 5.0 10.0 0.00 0.00 0.00 28 1020.6
20210925181003 78 325 7.0 10.0 0.00 0.00 0.00 28 1020.7
20210925180513 78 346 4.0 10.0 0.00 0.00 0.00 29 1020.7
20210925180022 77 333 4.0 8.0 0.00 0.00 0.00 28 1020.7
20210925175507 77 338 1.0 6.0 0.00 0.00 0.00 30 1020.7
20210925175020 77 51 2.0 6.0 0.00 0.00 0.00 31 1020.8
20210925174508 76 299 1.0 4.0 0.00 0.00 0.00 31 1020.8
20210925174021 75 80 1.0 3.0 0.00 0.00 0.00 32 1020.9
20210925173514 75 26 1.0 3.0 0.00 0.00 0.00 33 1020.9
20210925173011 75 347 1.0 3.0 0.00 0.00 0.00 32 1020.9
20210925172518 75 28 1.0 3.0 0.00 0.00 0.00 33 1021.0
20210925172009 75 344 0.0 3.0 0.00 0.00 0.00 34 1021.0
20210925171518 74 343 1.0 3.0 0.00 0.00 0.00 34 1021.0
20210925171008 73 343 0.0 4.0 0.00 0.00 0.00 35 1020.9
20210925170517 73 342 1.0 4.0 0.00 0.00 0.00 35 1021.0
20210925170011 73 42 0.0 0.0 0.00 0.00 0.00 36 1021.0
20210925165520 72 34 0.0 0.0 0.00 0.00 0.00 37 1021.0
20210925165010 71 57 0.0 0.0 0.00 0.00 0.00 38 1021.0
20210925164517 71 162 0.0 0.0 0.00 0.00 0.00 38 1020.9
20210925164010 70 163 0.0 0.0 0.00 0.00 0.00 39 1020.9
20210925163504 70 163 0.0 0.0 0.00 0.00 0.00 39 1020.9
20210925163015 70 162 0.0 0.0 0.00 0.00 0.00 39 1021.0
20210925162508 70 162 0.0 0.0 0.00 0.00 0.00 39 1021.0
20210925162018 70 163 0.0 0.0 0.00 0.00 0.00 40 1020.9
20210925161508 69 161 0.0 0.0 0.00 0.00 0.00 42 1021.0
20210925161015 69 162 0.0 0.0 0.00 0.00 0.00 39 1020.9
20210925160507 68 161 0.0 0.0 0.00 0.00 0.00 40 1020.9
20210925160020 67 161 0.0 0.0 0.00 0.00 0.00 40 1020.8
20210925155509 66 161 0.0 0.0 0.00 0.00 0.00 43 1020.9
20210925155017 65 161 0.0 0.0 0.00 0.00 0.00 44 1020.8
20210925154509 64 160 0.0 0.0 0.00 0.00 0.00 45 1020.8
20210925154018 63 160 0.0 0.0 0.00 0.00 0.00 46 1020.8
20210925153512 62 160 0.0 0.0 0.00 0.00 0.00 47 1020.7
20210925153025 61 160 0.0 0.0 0.00 0.00 0.00 47 1020.7
20210925152518 60 160 0.0 0.0 0.00 0.00 0.00 48 1020.7
20210925152011 60 160 0.0 0.0 0.00 0.00 0.00 48 1020.8
20210925151519 60 160 0.0 0.0 0.00 0.00 0.00 48 1020.8
20210925151011 59 160 0.0 0.0 0.00 0.00 0.00 48 1020.8
20210925150504 59 160 0.0 0.0 0.00 0.00 0.00 48 1020.8
20210925150020 58 160 0.0 0.0 0.00 0.00 0.00 50 1020.7
20210925145507 57 360 0.0 0.0 0.00 0.00 0.00 51 1020.7
20210925145020 57 360 0.0 0.0 0.00 0.00 0.00 52 1020.7
20210925144514 56 161 0.0 0.0 0.00 0.00 0.00 53 1020.7
20210925144008 56 360 0.0 0.0 0.00 0.00 0.00 53 1020.6
20210925143519 56 185 0.0 0.0 0.00 0.00 0.00 53 1020.7
20210925143014 56 200 0.0 0.0 0.00 0.00 0.00 52 1020.6
20210925142507 56 200 0.0 0.0 0.00 0.00 0.00 52 1020.7
20210925142020 56 360 0.0 0.0 0.00 0.00 0.00 52 1020.7
20210925141511 56 360 0.0 0.0 0.00 0.00 0.00 51 1020.7
20210925141006 56 201 0.0 0.0 0.00 0.00 0.00 51 1020.7
20210925140520 56 200 0.0 0.0 0.00 0.00 0.00 52 1020.7
20210925140017 55 200 0.0 0.0 0.00 0.00 0.00 52 1020.7
20210925135505 55 201 0.0 0.0 0.00 0.00 0.00 53 1020.7
20210925135019 55 201 0.0 0.0 0.00 0.00 0.00 53 1020.6
20210925134513 55 201 0.0 0.0 0.00 0.00 0.00 53 1020.6
20210925134006 55 201 0.0 0.0 0.00 0.00 0.00 53 1020.5
20210925133516 55 200 0.0 0.0 0.00 0.00 0.00 53 1020.5
20210925133010 55 200 0.0 0.0 0.00 0.00 0.00 53 1020.5
20210925132520 55 201 0.0 0.0 0.00 0.00 0.00 54 1020.4
20210925132014 55 200 0.0 0.0 0.00 0.00 0.00 54 1020.4
20210925131523 55 200 0.0 0.0 0.00 0.00 0.00 55 1020.4
20210925131016 54 201 0.0 0.0 0.00 0.00 0.00 55 1020.3
20210925130509 54 200 0.0 0.0 0.00 0.00 0.00 55 1020.3
20210925130006 54 200 0.0 0.0 0.00 0.00 0.00 55 1020.3
20210925125514 54 200 0.0 0.0 0.00 0.00 0.00 54 1020.2
20210925125006 55 200 0.0 0.0 0.00 0.00 0.00 54 1020.2
20210925124517 55 200 0.0 0.0 0.00 0.00 0.00 54 1020.3
20210925124007 55 200 0.0 0.0 0.00 0.00 0.00 54 1020.2
20210925123522 55 200 0.0 0.0 0.00 0.00 0.00 54 1020.2
20210925123016 55 200 0.0 0.0 0.00 0.00 0.00 54 1020.1
20210925122510 55 200 0.0 0.0 0.00 0.00 0.00 55 1020.1
20210925122021 55 200 0.0 0.0 0.00 0.00 0.00 55 1020.0
20210925121515 55 200 0.0 0.0 0.00 0.00 0.00 55 1020.0
20210925121009 55 201 0.0 0.0 0.00 0.00 0.00 55 1020.0
20210925120523 55 201 0.0 0.0 0.00 0.00 0.00 54 1019.9
20210925120013 55 200 0.0 0.0 0.00 0.00 0.00 54 1019.8
20210925115505 55 200 0.0 0.0 0.00 0.00 0.00 54 1019.8
20210925115021 55 200 0.0 0.0 0.00 0.00 0.00 54 1019.8
20210925114515 55 200 0.0 0.0 0.00 0.00 0.00 54 1019.8
20210925114005 55 200 0.0 0.0 0.00 0.00 0.00 54 1019.8
20210925113518 55 200 0.0 0.0 0.00 0.00 0.00 54 1019.8
20210925113010 55 201 0.0 0.0 0.00 0.00 0.00 54 1019.8
20210925112523 56 200 0.0 0.0 0.00 0.00 0.00 54 1019.8
20210925112014 56 200 0.0 0.0 0.00 0.00 0.00 54 1019.7
20210925111505 56 200 0.0 0.0 0.00 0.00 0.00 53 1019.7
20210925111019 55 200 0.0 0.0 0.00 0.00 0.00 54 1019.6
20210925110513 55 200 0.0 0.0 0.00 0.00 0.00 53 1019.6
20210925110025 55 200 0.0 0.0 0.00 0.00 0.00 53 1019.6
20210925105518 55 200 0.0 0.0 0.00 0.00 0.00 53 1019.6
20210925105011 55 200 0.0 0.0 0.00 0.00 0.00 52 1019.6
20210925104505 55 200 0.0 0.0 0.00 0.00 0.00 52 1019.6
20210925104016 55 200 0.0 0.0 0.00 0.00 0.00 52 1019.6
20210925103511 55 200 0.0 0.0 0.00 0.00 0.00 52 1019.5
20210925103006 56 200 0.0 0.0 0.00 0.00 0.00 52 1019.5
20210925102511 56 200 0.0 0.0 0.00 0.00 0.00 52 1019.6
20210925102005 56 200 0.0 0.0 0.00 0.00 0.00 52 1019.5
20210925101521 56 200 0.0 0.0 0.00 0.00 0.00 52 1019.6
20210925101011 56 200 0.0 0.0 0.00 0.00 0.00 52 1019.7
20210925100522 56 200 0.0 0.0 0.00 0.00 0.00 52 1019.7
20210925100017 56 360 0.0 0.0 0.00 0.00 0.00 52 1019.7
20210925095506 56 360 0.0 0.0 0.00 0.00 0.00 52 1019.8
20210925095020 56 360 0.0 0.0 0.00 0.00 0.00 52 1019.8
20210925094508 56 360 0.0 0.0 0.00 0.00 0.00 52 1019.8
20210925094011 57 360 0.0 0.0 0.00 0.00 0.00 52 1019.9
20210925093524 57 360 0.0 0.0 0.00 0.00 0.00 51 1019.9
20210925093020 57 360 0.0 0.0 0.00 0.00 0.00 51 1020.0
20210925092508 57 360 0.0 0.0 0.00 0.00 0.00 51 1020.0
20210925092022 57 360 0.0 0.0 0.00 0.00 0.00 52 1020.1
20210925091516 57 200 0.0 0.0 0.00 0.00 0.00 52 1020.0
20210925091010 57 360 0.0 0.0 0.00 0.00 0.00 52 1020.1
20210925090518 57 200 0.0 0.0 0.00 0.00 0.00 51 1020.1
20210925090011 58 360 0.0 0.0 0.00 0.00 0.00 51 1020.1
20210925085523 58 200 0.0 0.0 0.00 0.00 0.00 51 1020.1
20210925085022 58 360 0.0 0.0 0.00 0.00 0.00 51 1020.1
20210925084517 58 200 0.0 0.0 0.00 0.00 0.00 51 1020.0
20210925084009 58 360 0.0 0.0 0.00 0.00 0.00 51 1020.1
20210925083519 58 360 0.0 0.0 0.00 0.00 0.00 51 1020.1
20210925083013 58 360 0.0 0.0 0.00 0.00 0.00 50 1020.1
20210925082522 58 200 0.0 0.0 0.00 0.00 0.00 50 1020.0
20210925082014 59 200 0.0 0.0 0.00 0.00 0.00 49 1020.0
20210925081506 59 360 0.0 0.0 0.00 0.00 0.00 50 1020.0
20210925081016 59 360 0.0 0.0 0.00 0.00 0.00 49 1020.0
20210925080507 59 173 0.0 0.0 0.00 0.00 0.00 48 1020.0
20210925080021 59 173 0.0 0.0 0.00 0.00 0.00 48 1020.0
20210925075508 59 360 0.0 0.0 0.00 0.00 0.00 47 1020.1
20210925075020 60 173 0.0 0.0 0.00 0.00 0.00 47 1020.2
20210925074512 60 360 0.0 0.0 0.00 0.00 0.00 47 1020.1
20210925074006 60 360 0.0 0.0 0.00 0.00 0.00 47 1020.2
20210925073515 60 360 0.0 0.0 0.00 0.00 0.00 46 1020.1
20210925073007 60 360 0.0 0.0 0.00 0.00 0.00 46 1020.2
20210925072519 61 161 0.0 2.0 0.00 0.00 0.00 47 1020.2
20210925072011 61 161 1.0 2.0 0.00 0.00 0.00 46 1020.2
20210925071518 61 360 0.0 2.0 0.00 0.00 0.00 46 1020.2
20210925071009 61 160 0.0 2.0 0.00 0.00 0.00 47 1020.2
20210925070521 61 160 1.0 3.0 0.00 0.00 0.00 47 1020.2
20210925070030 61 161 1.0 3.0 0.00 0.00 0.00 47 1020.2
20210925065514 61 360 1.0 3.0 0.00 0.00 0.00 47 1020.3
20210925065008 61 360 1.0 5.0 0.00 0.00 0.00 47 1020.3
20210925064522 61 159 3.0 5.0 0.00 0.00 0.00 47 1020.3
20210925064013 61 360 0.0 0.0 0.00 0.00 0.00 47 1020.3
20210925063507 62 171 0.0 0.0 0.00 0.00 0.00 46 1020.2
20210925063022 62 360 0.0 0.0 0.00 0.00 0.00 45 1020.2
20210925062516 63 360 0.0 0.0 0.00 0.00 0.00 45 1020.2
20210925062007 63 360 0.0 0.0 0.00 0.00 0.00 44 1020.2
20210925061522 63 360 0.0 0.0 0.00 0.00 0.00 45 1020.2
20210925061016 63 360 0.0 1.0 0.00 0.00 0.00 45 1020.2
20210925060511 63 171 0.0 0.0 0.00 0.00 0.00 45 1020.2
20210925060022 63 171 0.0 0.0 0.00 0.00 0.00 45 1020.2
20210925055513 64 171 0.0 0.0 0.00 0.00 0.00 44 1020.3
20210925055007 64 170 0.0 0.0 0.00 0.00 0.00 44 1020.4
20210925054521 64 360 0.0 0.0 0.00 0.00 0.00 42 1020.4
20210925054007 64 360 0.0 0.0 0.00 0.00 0.00 42 1020.4
20210925053520 64 360 0.0 0.0 0.00 0.00 0.00 43 1020.4
20210925053016 65 360 0.0 0.0 0.00 0.00 0.00 43 1020.4
20210925052509 65 360 0.0 0.0 0.00 0.00 0.00 43 1020.4
20210925052019 65 360 0.0 0.0 0.00 0.00 0.00 44 1020.4
20210925051513 65 360 0.0 0.0 0.00 0.00 0.00 44 1020.3
20210925051007 65 112 0.0 0.0 0.00 0.00 0.00 43 1020.3
20210925050517 65 360 0.0 0.0 0.00 0.00 0.00 44 1020.3
20210925050011 65 360 0.0 0.0 0.00 0.00 0.00 44 1020.2
20210925045524 65 360 0.0 0.0 0.00 0.00 0.00 44 1020.3
20210925045019 65 360 0.0 0.0 0.00 0.00 0.00 44 1020.2
20210925044508 66 131 0.0 0.0 0.00 0.00 0.00 43 1020.2
20210925044023 66 130 0.0 0.0 0.00 0.00 0.00 44 1020.2
20210925043517 66 130 0.0 0.0 0.00 0.00 0.00 44 1020.1
20210925043015 67 130 0.0 0.0 0.00 0.00 0.00 44 1020.2
20210925042524 67 130 0.0 0.0 0.00 0.00 0.00 43 1020.2
20210925042018 67 131 0.0 0.0 0.00 0.00 0.00 43 1020.2
20210925041513 68 132 0.0 0.0 0.00 0.00 0.00 43 1020.2
20210925041008 68 131 0.0 0.0 0.00 0.00 0.00 42 1020.2
20210925040518 68 132 0.0 0.0 0.00 0.00 0.00 42 1020.1
20210925040012 69 132 0.0 0.0 0.00 0.00 0.00 42 1020.0
20210925035523 69 125 0.0 0.0 0.00 0.00 0.00 41 1019.9
20210925035016 70 126 0.0 0.0 0.00 0.00 0.00 41 1019.8
20210925034525 70 101 0.0 0.0 0.00 0.00 0.00 40 1019.8
20210925034016 70 107 0.0 0.0 0.00 0.00 0.00 40 1019.8
20210925033508 70 100 0.0 0.0 0.00 0.00 0.00 40 1019.8
20210925033022 70 100 0.0 0.0 0.00 0.00 0.00 40 1019.7
20210925032509 70 99 0.0 0.0 0.00 0.00 0.00 40 1019.6
20210925032023 70 96 0.0 0.0 0.00 0.00 0.00 39 1019.6
20210925031513 71 93 0.0 0.0 0.00 0.00 0.00 39 1019.5
20210925031007 71 95 0.0 0.0 0.00 0.00 0.00 38 1019.4
20210925030518 71 96 0.0 3.0 0.00 0.00 0.00 38 1019.4
20210925030012 72 98 2.0 3.0 0.00 0.00 0.00 38 1019.5
20210925025524 72 98 0.0 4.0 0.00 0.00 0.00 37 1019.4
20210925025015 72 98 2.0 4.0 0.00 0.00 0.00 37 1019.4
20210925024510 72 80 2.0 3.0 0.00 0.00 0.00 36 1019.4
20210925024023 72 340 1.0 5.0 0.00 0.00 0.00 35 1019.2
20210925023518 73 295 2.0 5.0 0.00 0.00 0.00 36 1019.2
20210925023010 73 284 3.0 5.0 0.00 0.00 0.00 35 1019.1
20210925022523 73 287 2.0 4.0 0.00 0.00 0.00 36 1019.0
20210925022015 73 101 2.0 4.0 0.00 0.00 0.00 36 1019.0
20210925021508 73 144 0.0 5.0 0.00 0.00 0.00 35 1018.8
20210925021019 73 183 2.0 5.0 0.00 0.00 0.00 35 1018.8
20210925020514 73 213 0.0 3.0 0.00 0.00 0.00 36 1018.8
20210925020010 73 216 1.0 3.0 0.00 0.00 0.00 36 1018.7
20210925015523 74 240 0.0 2.0 0.00 0.00 0.00 35 1018.7
20210925015011 74 335 0.0 6.0 0.00 0.00 0.00 32 1018.8
20210925014507 74 338 3.0 6.0 0.00 0.00 0.00 31 1018.6
20210925014022 75 346 2.0 9.0 0.00 0.00 0.00 31 1018.6
20210925013516 75 331 3.0 9.0 0.00 0.00 0.00 31 1018.5
20210925013008 75 336 2.0 8.0 0.00 0.00 0.00 31 1018.6
20210925012522 76 327 4.0 8.0 0.00 0.00 0.00 30 1018.6
20210925012016 76 304 2.0 9.0 0.00 0.00 0.00 29 1018.6
20210925011511 76 322 3.0 10.0 0.00 0.00 0.00 28 1018.7
20210925011021 77 340 5.0 11.0 0.00 0.00 0.00 28 1018.8
20210925010515 77 337 8.0 11.0 0.00 0.00 0.00 28 1018.6
20210925010011 77 327 5.0 12.0 0.00 0.00 0.00 27 1018.7
20210925005523 77 341 6.0 12.0 0.00 0.00 0.00 27 1018.6
20210925005013 78 325 5.0 13.0 0.00 0.00 0.00 27 1018.7
20210925004507 77 341 7.0 13.0 0.00 0.00 0.00 27 1018.6
20210925004022 78 345 7.0 18.0 0.00 0.00 0.00 26 1018.5
20210925003514 78 322 10.0 18.0 0.00 0.00 0.00 25 1018.4
20210925003025 78 334 10.0 16.0 0.00 0.00 0.00 26 1018.5
20210925002518 78 327 10.0 16.0 0.00 0.00 0.00 27 1018.4
20210925002010 78 343 8.0 17.0 0.00 0.00 0.00 27 1018.3
20210925001522 79 326 8.0 17.0 0.00 0.00 0.00 27 1018.3
20210925001015 79 321 10.0 17.0 0.00 0.00 0.00 27 1018.3
20210925000508 79 322 11.0 17.0 0.00 0.00 0.00 26 1018.2
20210925000024 80 333 10.0 15.0 0.00 0.00 0.00 26 1018.1
20210924235512 80 338 10.0 15.0 0.00 0.00 0.00 26 1018.1
20210924235026 80 327 11.0 15.0 0.00 0.00 0.00 26 1018.0
20210924234517 80 342 10.0 16.0 0.00 0.00 0.00 26 1018.0
20210924234013 80 302 9.0 18.0 0.00 0.00 0.00 26 1017.9
20210924233522 80 303 12.0 18.0 0.00 0.00 0.00 26 1017.9
20210924233018 80 327 11.0 16.0 0.00 0.00 0.00 26 1017.9
20210924232511 80 321 10.0 16.0 0.00 0.00 0.00 26 1017.9
20210924232025 80 314 10.0 15.0 0.00 0.00 0.00 26 1018.0
20210924231516 81 298 11.0 17.0 0.00 0.00 0.00 26 1018.0
20210924231010 81 337 12.0 19.0 0.00 0.00 0.00 26 1018.0
20210924230525 81 331 12.0 19.0 0.00 0.00 0.00 26 1017.9
20210924230020 81 334 11.0 16.0 0.00 0.00 0.00 26 1018.0
20210924225527 81 325 8.0 17.0 0.00 0.00 0.00 26 1017.9
20210924225019 81 313 10.0 19.0 0.00 0.00 0.00 26 1018.0
20210924224515 81 324 13.0 20.0 0.00 0.00 0.00 26 1017.9
20210924224008 82 328 12.0 20.0 0.00 0.00 0.00 25 1017.8
20210924223515 83 346 7.0 14.0 0.00 0.00 0.00 24 1018.0
20210924223010 83 325 7.0 16.0 0.00 0.00 0.00 24 1017.9
20210924222523 84 336 8.0 17.0 0.00 0.00 0.00 24 1017.9
20210924222013 86 324 5.0 12.0 0.00 0.00 0.00 18 1018.0
20210924221525 85 336 5.0 15.0 0.00 0.00 0.00 21 1017.9
20210924221018 86 9 8.0 15.0 0.00 0.00 0.00 16 1018.0
20210924220512 87 313 9.0 17.0 0.00 0.00 0.00 15 1018.0